Theta_e
314 314 314 314 313 313 311 309 307 307 306 305 307 306 306 307 309 307 308 307 309 308 308 309 309 310 310 309 310 309 308 307 307 306 306 306 305 306 305 305 305 306
314 315 315 314 313 314 312 311 309 308 306 305 306 307 306 308 308 308 307 307 308 306 307 307 309 309 308 308 308 308 307 308 308 309 306 305 304 304 303 303 303 304
313 314 314 313 313 313 313 311 310 309 307 306 306 306 308 309 307 307 307 307 307 307 306 307 308 309 308 307 307 308 307 307 307 307 308 306 305 305 303 303 304 304
314 315 314 314 314 314 313 312 311 311 309 308 308 309 310 311 308 308 308 315 307 308 306 307 308 308 308 307 307 306 306 307 307 308 308 306 305 305 305 306 306 304
314 314 315 315 315 315 314 313 312 311 311 310 309 309 311 310 308 309 309 309 307 308 307 308 307 307 308 307 306 306 308 307 306 307 307 306 304 306 306 307 306 304
314 315 315 315 315 315 314 313 313 313 312 311 310 311 310 309 309 309 309 309 308 308 308 307 307 307 307 307 306 306 307 307 307 306 307 307 307 306 306 305 305 304
313 313 313 314 315 315 315 314 314 314 313 313 311 310 310 310 310 310 310 310 309 310 310 309 309 308 307 307 307 307 307 307 306 306 307 306 307 307 306 305 305 304
313 312 313 314 314 314 314 312 313 313 313 312 311 311 311 311 311 311 312 312 311 311 310 309 309 308 307 307 308 307 307 307 306 305 306 305 306 306 306 305 304 304
312 312 313 314 314 314 313 313 313 313 314 313 312 311 312 312 312 312 313 313 313 312 311 310 311 311 310 310 308 307 307 307 308 306 306 306 306 306 306 304 303 305
312 311 312 312 312 312 313 313 314 313 314 314 314 313 313 313 314 315 314 313 313 312 312 311 310 312 312 311 310 308 307 308 307 307 307 307 307 307 306 306 305 304
310 310 311 310 311 312 312 313 314 313 314 314 315 315 315 314 315 315 314 313 313 313 313 312 312 313 313 313 312 310 309 308 307 308 308 308 308 308 308 307 307 306
309 310 310 310 310 311 311 313 313 314 314 314 315 314 314 314 314 314 314 314 314 314 313 313 313 313 314 314 314 313 311 309 308 308 308 308 308 308 309 308 308 308
309 309 310 310 310 310 311 311 311 310 312 312 312 313 313 312 313 313 312 313 314 314 314 314 314 314 314 314 314 313 313 311 309 308 308 308 308 307 308 308 308 308
309 308 308 309 309 311 311 310 310 310 311 311 311 311 313 312 312 313 312 312 313 313 313 313 313 313 313 313 314 313 313 312 311 310 309 308 308 308 308 308 308 308
308 308 308 309 308 308 308 309 310 310 310 310 310 310 311 311 312 311 310 311 311 311 311 311 312 312 313 313 313 313 312 312 311 311 310 310 309 308 308 308 308 308
306 307 308 307 307 308 309 309 309 308 308 308 308 309 309 309 310 309 310 309 310 309 309 309 310 312 312 307 307 313 312 312 312 312 311 311 310 310 310 309 309 309
305 305 305 306 307 307 307 307 308 308 308 307 308 309 309 309 309 308 308 308 309 308 308 308 310 311 305 301 298 299 308 310 311 312 311 311 311 310 311 311 310 309
302 302 302 302 304 305 306 307 306 307 307 307 307 307 308 307 307 308 308 307 307 307 307 308 308 305 296 295 295 295 298 307 309 310 310 310 310 310 310 310 310 310
297 298 298 298 299 300 302 305 306 305 305 304 305 304 305 305 305 303 305 304 305 305 305 305 305 298 293 294 294 293 293 298 306 308 308 309 309 309 309 309 309 308
296 297 297 296 296 297 299 300 301 300 299 299 300 300 301 301 301 303 301 301 302 303 303 302 303 294 290 291 292 292 292 294 305 306 307 308 308 307 307 307 306 306
296 296 296 296 296 296 296 296 296 295 297 296 296 297 297 298 298 297 297 296 295 296 296 298 299 292 291 291 290 291 291 293 302 304 306 305 304 303 304 305 305 304
296 296 297 297 297 296 296 296 295 295 296 296 295 294 294 295 294 293 293 294 293 292 296 298 295 292 291 292 292 292 292 299 301 304 304 299 296 297 298 299 300 302
295 296 295 295 294 295 295 295 295 295 294 294 295 294 295 294 292 292 291 291 293 292 293 294 292 292 291 291 292 292 296 301 299 296 295 295 295 295 296 299 300 299
295 296 296 295 296 297 296 295 295 295 296 297 297 296 295 293 292 291 290 291 291 291 293 294 293 291 292 291 293 293 296 296 296 295 293 293 292 293 294 296 300 301
295 295 296 296 297 296 297 296 297 297 296 293 294 293 292 291 293 290 289 288 289 291 296 290 289 291 292 292 293 294 295 296 296 294 292 291 292 292 292 293 294 295
296 297 297 297 297 296 296 297 297 295 294 293 290 289 290 290 291 288 288 288 287 287 288 288 289 290 292 291 293 293 294 296 295 294 292 291 292 292 292 293 293 293
Wind_Speed
7 6 7 6 5 5 6 6 4 5 3 2 4 3 4 2 2 2 2 3 3 3 3 2 2 2 2 3 4 5 5 6 5 5 6 6 5 5 6 5 5 5
6 6 4 4 4 4 5 5 6 5 4 3 1 1 1 1 2 2 2 3 3 3 2 2 1 1 2 2 2 5 5 5 6 3 6 7 5 6 6 6 5 4
6 5 6 7 7 6 5 4 5 5 4 4 2 1 1 1 2 2 2 2 2 3 2 2 1 1 2 2 2 2 3 4 6 4 6 7 5 6 5 6 5 5
6 8 8 7 6 7 6 5 4 5 4 4 4 2 2 1 1 2 1 1 2 1 2 2 1 1 2 2 2 3 3 3 2 2 5 4 5 6 6 5 5 5
6 7 6 6 5 5 5 5 5 5 6 4 4 3 3 2 2 1 1 1 1 1 1 1 1 1 1 2 2 2 2 2 3 3 3 3 1 4 4 5 5 5
4 4 5 6 6 7 6 6 5 5 4 4 3 3 3 2 2 2 2 2 0 0 1 1 1 2 1 1 2 1 1 0 1 2 2 2 2 2 2 4 5 5
6 4 3 4 5 4 5 5 3 3 2 1 5 5 3 1 0 1 1 1 1 1 1 1 0 0 1 2 1 1 0 0 0 1 1 1 1 1 1 3 4 5
4 4 3 4 6 5 4 3 2 2 2 2 6 4 4 2 3 5 5 5 3 4 3 2 4 6 7 6 3 2 2 1 3 3 2 2 1 2 1 1 2 4
5 4 5 5 5 4 4 5 5 5 4 3 3 5 4 5 4 2 1 1 2 1 1 5 5 5 2 2 4 6 6 4 3 4 4 4 4 4 3 0 2 3
5 5 6 6 6 6 7 6 7 6 6 5 4 4 5 4 5 5 2 1 1 0 3 4 3 5 6 5 2 1 5 6 4 4 5 5 5 5 4 4 4 4
5 5 6 6 7 6 6 5 5 6 5 5 5 3 3 3 1 2 3 3 2 1 2 4 4 1 2 1 2 5 5 5 6 5 6 6 6 5 4 5 5 6
6 6 7 7 8 7 7 6 6 6 5 4 5 5 5 4 3 2 4 6 5 5 4 4 4 4 4 4 4 3 4 5 6 6 6 6 6 6 6 6 7 7
5 5 6 7 8 8 6 6 6 6 5 5 4 6 4 2 3 4 1 4 7 6 6 6 6 4 4 4 4 5 6 4 5 6 6 5 6 6 6 6 6 6
4 5 4 6 7 5 4 4 4 5 4 4 3 3 4 6 5 4 5 5 6 4 3 3 3 3 4 5 5 5 6 6 5 6 7 6 6 6 6 6 7 6
3 3 4 5 6 5 3 3 5 4 5 5 5 4 3 3 3 4 4 4 3 3 4 4 4 5 5 5 5 6 5 6 6 7 7 6 6 5 5 5 6 6
4 5 5 5 6 6 6 5 4 2 3 4 4 3 3 3 2 2 3 3 4 4 4 4 5 4 6 9 7 5 5 5 5 6 6 5 5 5 6 6 7 7
3 3 4 5 4 4 2 3 2 1 1 1 1 1 1 0 1 2 2 2 4 4 3 3 4 4 4 5 6 6 5 5 5 5 5 5 5 6 7 7 6 6
3 2 2 3 5 5 5 4 3 3 2 2 2 1 0 1 1 3 3 2 2 2 3 4 4 3 6 5 5 3 3 4 4 5 5 5 5 6 6 6 6 5
3 4 3 3 2 3 4 4 4 3 2 2 2 2 3 2 2 1 2 1 2 3 4 4 4 6 7 7 7 5 2 4 4 5 5 6 6 5 5 6 5 5
5 6 6 4 4 4 4 5 5 5 4 3 4 4 4 3 2 1 1 1 1 2 3 2 1 4 5 5 5 6 5 4 4 4 4 5 5 4 4 5 5 5
5 5 5 4 5 5 5 5 4 4 4 3 4 4 6 6 6 5 3 3 1 1 1 3 2 4 6 6 5 4 4 2 2 2 2 2 2 3 4 5 5 5
5 5 4 4 5 5 6 5 4 4 4 3 4 4 4 5 4 5 5 4 3 3 3 3 4 8 9 9 8 6 3 2 1 1 0 2 4 4 4 3 3 2
5 6 5 5 5 6 5 4 4 3 3 2 5 3 3 4 4 4 3 3 3 3 4 2 1 4 7 8 7 3 3 3 3 4 4 5 5 5 5 5 4 4
3 5 6 6 6 6 6 5 5 4 4 3 6 4 3 3 3 4 4 3 2 2 0 1 0 2 4 4 2 1 3 4 4 5 5 5 5 6 5 6 7 11
3 4 4 5 6 6 6 6 6 6 5 4 5 5 4 3 3 4 3 3 2 1 2 1 2 3 5 3 3 5 5 4 5 5 5 4 5 6 6 6 6 8
2 3 5 5 5 4 3 5 5 5 6 6 4 4 5 4 2 3 4 1 2 3 3 3 3 3 4 4 3 6 7 5 4 5 5 5 5 5 6 6 6 5
Wind_Direction
168 167 163 166 160 153 152 150 154 147 163 166 163 179 166 162 83 72 59 63 67 78 63 49 40 64 68 85 100 103 104 108 111 120 99 101 101 104 97 96 80 99
173 164 149 139 139 139 147 151 152 149 167 176 223 172 135 81 72 92 81 79 77 75 72 73 57 44 48 55 79 111 117 117 115 130 105 98 111 96 94 89 91 81
155 152 155 167 174 169 157 151 147 149 151 180 162 127 103 64 96 68 78 86 83 83 73 77 97 72 65 55 19 26 76 113 121 124 113 127 129 108 119 114 95 89
175 173 174 179 176 163 148 147 147 145 133 151 182 154 125 115 115 105 72 86 109 97 78 80 111 96 81 60 49 51 19 11 27 87 113 114 126 130 134 120 114 92
188 186 181 173 157 142 144 158 168 162 179 169 136 144 143 140 123 128 136 144 129 122 90 83 72 80 84 85 78 87 40 16 359 3 45 67 236 121 152 118 110 97
198 214 185 167 156 152 159 176 178 177 174 169 157 137 133 138 152 164 185 206 78 59 34 33 57 57 65 67 63 64 29 5 348 22 74 75 40 6 96 108 110 100
183 182 172 139 134 143 164 177 164 156 128 99 93 64 46 27 4 262 211 180 153 176 179 158 76 35 73 125 135 129 356 95 264 9 330 324 88 80 4 113 121 123
167 148 142 136 138 142 151 141 99 80 86 53 70 79 89 49 8 353 356 360 348 338 346 18 34 32 14 8 343 286 265 223 202 187 203 293 342 253 305 346 113 126
143 152 149 144 133 133 115 94 88 84 85 100 111 116 117 105 95 79 332 339 347 22 69 73 80 83 82 14 321 305 288 267 217 198 197 193 214 237 236 204 126 151
143 151 146 148 138 120 112 131 132 130 138 145 153 141 136 139 167 198 192 207 224 115 87 111 148 167 180 190 172 282 287 279 262 243 230 209 210 218 201 194 194 186
132 146 142 138 125 125 124 117 118 130 142 153 157 169 127 118 342 6 323 318 290 213 173 168 198 265 323 15 180 212 231 266 266 238 225 220 215 211 207 202 200 208
139 141 145 139 129 115 114 122 124 121 124 137 146 123 102 128 187 221 223 232 230 231 234 199 195 191 213 246 269 265 222 232 248 245 239 226 222 215 206 202 209 215
135 138 138 133 119 120 128 140 133 139 151 153 152 130 129 185 163 147 133 258 251 229 232 234 229 217 212 219 230 264 279 257 247 248 247 234 227 220 218 216 224 220
146 145 123 108 111 117 153 168 152 169 153 153 156 137 138 168 189 177 192 207 242 239 246 241 243 236 232 248 245 238 248 260 260 252 247 244 240 232 222 222 220 221
147 113 106 112 108 127 157 189 198 176 131 135 140 136 156 209 180 143 167 203 234 247 252 239 230 245 249 243 253 263 254 254 243 235 236 241 241 244 244 240 233 226
146 135 132 122 128 149 173 185 200 173 147 136 135 153 166 202 236 151 168 202 231 238 227 225 229 233 237 237 230 232 238 236 234 234 233 235 242 246 243 231 233 230
153 148 131 129 130 135 176 156 124 72 54 62 87 84 107 54 27 329 284 234 235 249 260 255 260 262 274 274 271 263 253 242 238 247 233 237 243 249 260 260 248 237
169 136 131 135 140 149 150 144 131 128 120 73 42 46 66 42 305 262 269 278 298 315 298 278 285 340 334 310 292 275 244 251 250 253 248 242 241 243 252 261 267 265
134 124 106 89 102 116 115 107 109 101 103 123 179 148 127 159 199 254 309 359 21 355 329 334 319 356 360 350 331 320 249 224 241 239 247 248 240 246 257 264 269 271
106 111 104 103 96 88 99 120 127 144 157 153 129 114 113 90 64 48 10 8 339 249 252 283 312 7 351 337 322 310 299 245 246 239 239 252 257 258 261 263 258 255
73 83 86 76 75 82 83 76 87 90 85 86 106 128 138 147 153 148 153 150 142 202 308 9 18 352 340 324 314 310 312 236 263 251 255 275 304 287 268 262 256 244
98 90 84 81 80 75 74 69 60 59 78 44 50 45 59 89 69 80 95 71 36 40 49 6 339 347 344 333 331 355 54 59 38 17 68 49 31 17 5 346 315 258
108 106 105 103 104 95 101 116 112 92 92 98 82 65 77 65 65 65 46 76 97 122 135 183 275 317 323 316 324 39 82 77 86 69 59 54 34 14 9 16 26 56
109 119 124 130 118 118 124 132 127 122 143 157 134 136 105 105 113 77 44 34 43 32 354 116 335 288 321 305 280 171 107 103 96 90 68 60 49 31 23 27 46 68
160 132 132 130 127 149 142 134 134 140 148 129 122 116 132 149 141 114 77 24 2 330 334 26 316 318 337 323 160 130 112 107 102 94 82 54 71 59 40 48 46 48
191 149 153 146 150 154 149 137 146 128 135 122 91 89 124 124 121 106 109 46 341 1 349 352 348 326 326 318 153 131 129 123 122 113 115 104 83 86 77 57 51 57